Time,TemperatureF,DewpointF,PressureIn,WindDirection,WindDirectionDegrees,WindSpeedMPH,WindSpeedGustMPH,Humidity,HourlyPrecipIn,Conditions,Clouds,dailyrainin,SolarRadiationWatts/m^2,SoftwareType,DateUTC
2013-07-27 00:03:00,68.0,62.3,29.91,NW,311,0.0,0.0,82,0.00,CLR,,0.00,0.0,WeatherDisplay:10.37,2013-07-26 22:03:00,
2013-07-27 00:08:00,68.1,62.4,29.91,NW,311,0.0,0.0,82,0.00,CLR,,0.00,0.0,WeatherDisplay:10.37,2013-07-26 22:08:00,
2013-07-27 00:13:00,67.9,62.2,29.91,NW,311,0.0,0.0,82,0.00,CLR,,0.00,0.0,WeatherDisplay:10.37,2013-07-26 22:13:00,
2013-07-27 00:18:00,68.0,61.9,29.91,NW,311,0.0,0.0,81,0.00,CLR,,0.00,0.0,WeatherDisplay:10.37,2013-07-26 22:18:00,
2013-07-27 00:23:00,67.8,62.1,29.91,NW,311,0.0,0.0,82,0.00,CLR,,0.00,0.0,WeatherDisplay:10.37,2013-07-26 22:23:00,
2013-07-27 00:29:00,67.7,62.0,29.91,NW,311,0.0,0.0,82,0.00,CLR,,0.00,0.0,WeatherDisplay:10.37,2013-07-26 22:29:00,
2013-07-27 00:34:00,67.6,61.9,29.91,NW,311,0.0,0.0,82,0.00,CLR,,0.00,0.0,WeatherDisplay:10.37,2013-07-26 22:34:00,
2013-07-27 00:36:00,67.6,62.3,29.91,NW,311,0.0,0.0,83,0.00,CLR,,0.00,0.0,WeatherDisplay:10.37,2013-07-26 22:36:00,
2013-07-27 00:41:00,67.5,62.2,29.91,NW,311,0.0,0.0,83,0.00,CLR,,0.00,0.0,WeatherDisplay:10.37,2013-07-26 22:41:00,
2013-07-27 00:46:00,67.3,62.3,29.91,NW,311,0.0,0.0,84,0.00,CLR,,0.00,0.0,WeatherDisplay:10.37,2013-07-26 22:46:00,
2013-07-27 00:51:00,67.0,62.0,29.91,NW,311,0.0,0.0,84,0.00,CLR,,0.00,0.0,WeatherDisplay:10.37,2013-07-26 22:51:00,
2013-07-27 00:56:00,66.9,61.9,29.91,NW,311,0.0,0.0,84,0.00,CLR,,0.00,0.0,WeatherDisplay:10.37,2013-07-26 22:56:00,
2013-07-27 01:01:00,66.7,61.7,29.91,NW,311,0.0,0.0,84,0.00,CLR,,0.00,0.0,WeatherDisplay:10.37,2013-07-26 23:01:00,
2013-07-27 01:06:00,66.7,61.7,29.91,NW,311,0.0,0.0,84,0.00,CLR,,0.00,0.0,WeatherDisplay:10.37,2013-07-26 23:06:00,
2013-07-27 01:11:00,66.6,61.6,29.90,NW,311,0.0,0.0,84,0.00,CLR,,0.00,0.0,WeatherDisplay:10.37,2013-07-26 23:11:00,
2013-07-27 01:17:00,66.4,61.4,29.90,NW,311,0.0,0.0,84,0.00,CLR,,0.00,0.0,WeatherDisplay:10.37,2013-07-26 23:17:00,
2013-07-27 01:22:00,66.1,61.1,29.90,NW,311,1.2,1.2,84,0.00,CLR,,0.00,0.0,WeatherDisplay:10.37,2013-07-26 23:22:00,
2013-07-27 01:27:00,66.0,61.4,29.90,NW,311,0.0,0.0,85,0.00,CLR,,0.00,0.0,WeatherDisplay:10.37,2013-07-26 23:27:00,
2013-07-27 01:32:00,65.9,61.3,29.90,NW,311,0.0,0.0,85,0.00,CLR,,0.00,0.0,WeatherDisplay:10.37,2013-07-26 23:32:00,
2013-07-27 01:38:00,65.6,61.0,29.90,NW,311,0.0,0.0,85,0.00,CLR,,0.00,0.0,WeatherDisplay:10.37,2013-07-26 23:38:00,
2013-07-27 01:43:00,65.5,60.9,29.90,NW,311,0.0,0.0,85,0.00,CLR,,0.00,0.0,WeatherDisplay:10.37,2013-07-26 23:43:00,
2013-07-27 01:48:00,65.6,61.0,29.90,NW,311,0.0,0.0,85,0.00,CLR,,0.00,0.0,WeatherDisplay:10.37,2013-07-26 23:48:00,
2013-07-27 01:53:00,65.3,60.7,29.90,NW,311,0.0,0.0,85,0.00,CLR,,0.00,0.0,WeatherDisplay:10.37,2013-07-26 23:53:00,
2013-07-27 01:58:00,65.0,60.4,29.90,NW,311,0.0,0.0,85,0.00,CLR,,0.00,0.0,WeatherDisplay:10.37,2013-07-26 23:58:00,
2013-07-27 02:03:00,64.9,60.3,29.90,NW,311,1.2,0.0,85,0.00,CLR,,0.00,0.0,WeatherDisplay:10.37,2013-07-27 00:03:00,
2013-07-27 02:10:00,65.2,60.6,29.90,NW,311,0.0,0.0,85,0.00,CLR,,0.00,0.0,WeatherDisplay:10.37,2013-07-27 00:10:00,
2013-07-27 02:15:00,65.2,60.6,29.90,NW,311,0.0,0.0,85,0.00,CLR,,0.00,0.0,WeatherDisplay:10.37,2013-07-27 00:15:00,
2013-07-27 02:20:00,65.3,61.0,29.90,NW,311,0.0,0.0,86,0.00,CLR,,0.00,0.0,WeatherDisplay:10.37,2013-07-27 00:20:00,
2013-07-27 02:25:00,65.4,61.1,29.90,NW,311,0.0,0.0,86,0.00,CLR,,0.00,0.0,WeatherDisplay:10.37,2013-07-27 00:25:00,
2013-07-27 02:30:00,65.4,61.1,29.90,NW,311,0.0,0.0,86,0.00,CLR,,0.00,0.0,WeatherDisplay:10.37,2013-07-27 00:30:00,
2013-07-27 02:35:00,65.3,61.0,29.90,NW,311,0.0,0.0,86,0.00,CLR,,0.00,0.0,WeatherDisplay:10.37,2013-07-27 00:35:00,
2013-07-27 02:40:00,65.3,61.0,29.90,NW,311,0.0,0.0,86,0.00,CLR,,0.00,0.0,WeatherDisplay:10.37,2013-07-27 00:40:00,
2013-07-27 02:45:00,65.3,61.0,29.90,NW,311,0.0,0.0,86,0.00,CLR,,0.00,0.0,WeatherDisplay:10.37,2013-07-27 00:45:00,
2013-07-27 02:50:00,65.4,61.1,29.90,NW,311,0.0,0.0,86,0.00,CLR,,0.00,0.0,WeatherDisplay:10.37,2013-07-27 00:50:00,
2013-07-27 02:55:00,65.5,61.2,29.90,NW,311,0.0,0.0,86,0.00,CLR,,0.00,0.0,WeatherDisplay:10.37,2013-07-27 00:55:00,
2013-07-27 03:00:00,65.7,61.1,29.90,NW,311,0.0,0.0,85,0.00,CLR,,0.00,0.0,WeatherDisplay:10.37,2013-07-27 01:00:00,
2013-07-27 03:11:00,66.1,61.5,29.90,NW,311,0.0,0.0,85,0.00,CLR,,0.00,0.0,WeatherDisplay:10.37,2013-07-27 01:11:00,
2013-07-27 03:22:00,66.0,61.7,29.89,NW,311,0.0,0.0,86,0.00,CLR,,0.00,0.0,WeatherDisplay:10.37,2013-07-27 01:22:00,
2013-07-27 03:34:00,66.2,61.6,29.89,NW,311,1.2,0.0,85,0.00,CLR,,0.00,0.0,WeatherDisplay:10.37,2013-07-27 01:34:00,
2013-07-27 03:39:00,66.0,61.4,29.89,NW,311,0.0,0.0,85,0.00,CLR,,0.00,0.0,WeatherDisplay:10.37,2013-07-27 01:39:00,
2013-07-27 03:49:00,65.5,61.2,29.89,NW,311,2.3,2.3,86,0.00,CLR,,0.00,0.0,WeatherDisplay:10.37,2013-07-27 01:49:00,
2013-07-27 04:01:00,65.4,61.1,29.89,NW,311,0.0,0.0,86,0.00,CLR,,0.00,0.0,WeatherDisplay:10.37,2013-07-27 02:01:00,
2013-07-27 04:14:00,64.8,60.5,29.89,NW,311,0.0,0.0,86,0.00,CLR,,0.00,0.0,WeatherDisplay:10.37,2013-07-27 02:14:00,
2013-07-27 04:19:00,64.6,60.3,29.90,NW,311,0.0,0.0,86,0.00,CLR,,0.00,0.0,WeatherDisplay:10.37,2013-07-27 02:19:00,
2013-07-27 04:24:00,64.4,60.1,29.90,NW,311,0.0,0.0,86,0.00,CLR,,0.00,0.0,WeatherDisplay:10.37,2013-07-27 02:24:00,
2013-07-27 04:29:00,64.3,60.0,29.90,NW,311,0.0,0.0,86,0.00,CLR,,0.00,0.0,WeatherDisplay:10.37,2013-07-27 02:29:00,
2013-07-27 04:34:00,64.3,60.0,29.90,NW,311,0.0,0.0,86,0.00,CLR,,0.00,0.0,WeatherDisplay:10.37,2013-07-27 02:34:00,
2013-07-27 04:39:00,64.0,59.7,29.90,NW,311,0.0,0.0,86,0.00,CLR,,0.00,0.0,WeatherDisplay:10.37,2013-07-27 02:39:00,
2013-07-27 04:44:00,64.0,59.7,29.90,NW,311,0.0,0.0,86,0.00,CLR,,0.00,0.0,WeatherDisplay:10.37,2013-07-27 02:44:00,
2013-07-27 04:49:00,64.0,59.7,29.89,NW,311,0.0,0.0,86,0.00,CLR,,0.00,0.0,WeatherDisplay:10.37,2013-07-27 02:49:00,
2013-07-27 04:54:00,64.1,59.8,29.89,NW,311,0.0,0.0,86,0.00,CLR,,0.00,0.0,WeatherDisplay:10.37,2013-07-27 02:54:00,
2013-07-27 04:59:00,64.0,59.7,29.89,NW,311,1.0,1.0,86,0.00,CLR,,0.00,0.0,WeatherDisplay:10.37,2013-07-27 02:59:00,
2013-07-27 05:04:00,63.8,59.5,29.89,NW,311,1.2,0.0,86,0.00,OVC,,0.00,0.0,WeatherDisplay:10.37,2013-07-27 03:04:00,
2013-07-27 05:09:00,63.7,59.4,29.89,NW,311,1.0,1.0,86,0.00,OVC,,0.00,0.0,WeatherDisplay:10.37,2013-07-27 03:09:00,
2013-07-27 05:14:00,63.5,59.2,29.89,NW,311,1.0,0.0,86,0.00,OVC,,0.00,0.0,WeatherDisplay:10.37,2013-07-27 03:14:00,
2013-07-27 05:19:00,63.4,59.1,29.90,NW,311,1.2,1.2,86,0.00,OVC,,0.00,0.0,WeatherDisplay:10.37,2013-07-27 03:19:00,
2013-07-27 05:24:00,63.5,59.2,29.90,NW,311,2.0,2.0,86,0.00,OVC,,0.00,0.0,WeatherDisplay:10.37,2013-07-27 03:24:00,
2013-07-27 05:29:00,64.1,59.8,29.89,NW,311,1.2,1.2,86,0.00,OVC,,0.00,0.0,WeatherDisplay:10.37,2013-07-27 03:29:00,
2013-07-27 05:34:00,64.4,60.1,29.89,NW,311,2.3,2.3,86,0.00,OVC,,0.00,5.0,WeatherDisplay:10.37,2013-07-27 03:34:00,
2013-07-27 05:39:00,64.3,60.0,29.89,NW,311,1.2,1.2,86,0.00,OVC,,0.00,7.0,WeatherDisplay:10.37,2013-07-27 03:39:00,
2013-07-27 05:44:00,64.2,59.9,29.89,NW,311,3.0,3.0,86,0.00,OVC,,0.00,9.0,WeatherDisplay:10.37,2013-07-27 03:44:00,
2013-07-27 05:49:00,64.1,59.8,29.90,NW,311,1.2,1.2,86,0.00,OVC,,0.00,11.0,WeatherDisplay:10.37,2013-07-27 03:49:00,
2013-07-27 05:54:00,63.8,59.5,29.90,NW,311,0.0,0.0,86,0.00,OVC,,0.00,12.0,WeatherDisplay:10.37,2013-07-27 03:54:00,
2013-07-27 05:59:00,63.7,59.4,29.90,NW,311,1.0,0.0,86,0.00,OVC,,0.00,16.0,WeatherDisplay:10.37,2013-07-27 03:59:00,
2013-07-27 06:01:00,63.9,59.6,29.90,NW,311,1.2,1.2,86,0.00,OVC,,0.00,16.0,WeatherDisplay:10.37,2013-07-27 04:01:00,
2013-07-27 06:02:00,63.9,59.6,29.90,NW,311,1.2,1.2,86,0.00,OVC,,0.00,18.0,WeatherDisplay:10.37,2013-07-27 04:02:00,
2013-07-27 06:04:00,64.2,59.9,29.90,NW,311,0.0,0.0,86,0.00,OVC,,0.00,18.0,WeatherDisplay:10.37,2013-07-27 04:04:00,
2013-07-27 06:06:00,64.3,60.0,29.90,NW,311,0.0,0.0,86,0.00,OVC,,0.00,18.0,WeatherDisplay:10.37,2013-07-27 04:06:00,
2013-07-27 06:11:00,64.2,59.9,29.90,NW,311,0.0,0.0,86,0.00,OVC,,0.00,21.0,WeatherDisplay:10.37,2013-07-27 04:11:00,
2013-07-27 06:16:00,64.1,59.8,29.90,NW,311,0.0,0.0,86,0.00,OVC,,0.00,21.0,WeatherDisplay:10.37,2013-07-27 04:16:00,
2013-07-27 06:17:00,64.0,59.7,29.90,NW,311,1.0,1.0,86,0.00,OVC,,0.00,21.0,WeatherDisplay:10.37,2013-07-27 04:17:00,
2013-07-27 06:23:00,63.8,59.5,29.90,NW,311,0.0,0.0,86,0.00,OVC,,0.00,25.0,WeatherDisplay:10.37,2013-07-27 04:23:00,
2013-07-27 06:28:00,63.8,59.5,29.90,NW,311,0.0,0.0,86,0.00,OVC,,0.00,25.0,WeatherDisplay:10.37,2013-07-27 04:28:00,
2013-07-27 06:33:00,63.9,59.6,29.90,NW,311,0.0,0.0,86,0.00,OVC,,0.00,32.0,WeatherDisplay:10.37,2013-07-27 04:33:00,
2013-07-27 06:38:00,64.3,60.0,29.90,NW,311,2.3,2.3,86,0.00,OVC,,0.00,32.0,WeatherDisplay:10.37,2013-07-27 04:38:00,
2013-07-27 06:43:00,64.7,60.4,29.90,NW,311,0.0,0.0,86,0.00,OVC,,0.00,30.0,WeatherDisplay:10.37,2013-07-27 04:43:00,
2013-07-27 06:48:00,64.9,60.6,29.90,NW,311,0.0,0.0,86,0.00,OVC,,0.00,37.0,WeatherDisplay:10.37,2013-07-27 04:48:00,
2013-07-27 06:53:00,65.1,60.8,29.90,NW,311,0.0,0.0,86,0.00,OVC,,0.00,54.0,WeatherDisplay:10.37,2013-07-27 04:53:00,
2013-07-27 06:58:00,65.5,61.2,29.90,NW,311,0.0,0.0,86,0.00,BKN,,0.00,54.0,WeatherDisplay:10.37,2013-07-27 04:58:00,
2013-07-27 07:03:00,66.1,61.8,29.90,NW,311,1.2,1.2,86,0.00,OVC,,0.00,54.0,WeatherDisplay:10.37,2013-07-27 05:03:00,
2013-07-27 07:08:00,66.6,62.3,29.90,NW,311,1.2,1.2,86,0.00,OVC,,0.00,51.0,WeatherDisplay:10.37,2013-07-27 05:08:00,
2013-07-27 07:13:00,66.8,62.5,29.90,NW,311,1.2,1.2,86,0.00,OVC,,0.00,54.0,WeatherDisplay:10.37,2013-07-27 05:13:00,
2013-07-27 07:18:00,67.2,62.5,29.90,NW,311,2.3,2.3,85,0.00,OVC,,0.00,69.0,WeatherDisplay:10.37,2013-07-27 05:18:00,
2013-07-27 07:23:00,67.6,62.9,29.90,NW,311,2.3,2.3,85,0.00,OVC,,0.00,104.0,WeatherDisplay:10.37,2013-07-27 05:23:00,
2013-07-27 07:28:00,68.0,63.3,29.90,NW,311,3.5,3.5,85,0.00,OVC,,0.00,107.0,WeatherDisplay:10.37,2013-07-27 05:28:00,
2013-07-27 07:33:00,68.5,63.5,29.90,NW,311,4.0,4.0,84,0.00,SCT,,0.00,209.0,WeatherDisplay:10.37,2013-07-27 05:33:00,
2013-07-27 07:38:00,69.3,64.3,29.90,NW,311,3.5,3.5,84,0.00,SCT,,0.00,227.0,WeatherDisplay:10.37,2013-07-27 05:38:00,
2013-07-27 07:43:00,69.8,64.1,29.90,NW,313,3.5,3.5,82,0.00,SCT,,0.00,243.0,WeatherDisplay:10.37,2013-07-27 05:43:00,
2013-07-27 07:48:00,70.3,64.5,29.90,NW,313,3.5,3.5,82,0.00,SCT,,0.00,255.0,WeatherDisplay:10.37,2013-07-27 05:48:00,
2013-07-27 07:53:00,70.9,65.1,29.90,NW,313,4.0,4.0,82,0.00,SCT,,0.00,265.0,WeatherDisplay:10.37,2013-07-27 05:53:00,
2013-07-27 07:58:00,71.9,65.0,29.90,NW,313,2.3,2.3,79,0.00,SCT,,0.00,272.0,WeatherDisplay:10.37,2013-07-27 05:58:00,
2013-07-27 08:03:00,72.5,65.6,29.91,NW,313,3.5,3.5,79,0.00,SCT,,0.00,287.0,WeatherDisplay:10.37,2013-07-27 06:03:00,
2013-07-27 08:08:00,72.5,65.2,29.91,NW,313,3.5,3.5,78,0.00,SCT,,0.00,302.0,WeatherDisplay:10.37,2013-07-27 06:08:00,
2013-07-27 08:13:00,73.7,66.0,29.90,NW,313,2.3,2.3,77,0.00,SCT,,0.00,316.0,WeatherDisplay:10.37,2013-07-27 06:13:00,
2013-07-27 08:18:00,74.2,65.8,29.90,NW,313,3.5,3.5,75,0.00,SCT,,0.00,334.0,WeatherDisplay:10.37,2013-07-27 06:18:00,
2013-07-27 08:23:00,74.5,66.1,29.90,NW,313,2.3,2.3,75,0.00,SCT,,0.00,346.0,WeatherDisplay:10.37,2013-07-27 06:23:00,
2013-07-27 08:28:00,74.3,65.5,29.90,NW,315,3.5,3.5,74,0.00,SCT,,0.00,360.0,WeatherDisplay:10.37,2013-07-27 06:28:00,
2013-07-27 08:33:00,74.5,65.7,29.90,NE,51,4.0,4.0,74,0.00,SCT,,0.00,374.0,WeatherDisplay:10.37,2013-07-27 06:33:00,
2013-07-27 08:38:00,74.7,65.9,29.90,NE,51,3.0,3.0,74,0.00,SCT,,0.00,383.0,WeatherDisplay:10.37,2013-07-27 06:38:00,
2013-07-27 08:43:00,75.5,66.6,29.90,ENE,57,4.0,4.0,74,0.00,SCT,,0.00,397.0,WeatherDisplay:10.37,2013-07-27 06:43:00,
2013-07-27 08:48:00,76.6,66.5,29.90,ENE,63,3.5,3.5,71,0.00,SCT,,0.00,411.0,WeatherDisplay:10.37,2013-07-27 06:48:00,
2013-07-27 08:53:00,76.5,66.4,29.89,ENE,63,2.3,2.3,71,0.00,SCT,,0.00,425.0,WeatherDisplay:10.37,2013-07-27 06:53:00,
2013-07-27 08:58:00,77.9,66.5,29.89,ESE,107,3.5,3.5,68,0.00,SCT,,0.00,441.0,WeatherDisplay:10.37,2013-07-27 06:58:00,
2013-07-27 09:03:00,77.9,66.5,29.89,ESE,107,4.0,4.0,68,0.00,FEW,,0.00,462.0,WeatherDisplay:10.37,2013-07-27 07:03:00,
2013-07-27 09:08:00,78.3,66.0,29.89,East,95,5.0,5.0,66,0.00,FEW,,0.00,478.0,WeatherDisplay:10.37,2013-07-27 07:08:00,
2013-07-27 09:13:00,79.1,67.2,29.89,East,95,2.3,2.3,67,0.00,SCT,,0.00,462.0,WeatherDisplay:10.37,2013-07-27 07:13:00,
2013-07-27 09:18:00,79.4,66.6,29.89,East,95,2.3,2.3,65,0.00,SCT,,0.00,422.0,WeatherDisplay:10.37,2013-07-27 07:18:00,
2013-07-27 09:23:00,79.1,66.8,29.89,East,95,3.5,3.5,66,0.00,SCT,,0.00,397.0,WeatherDisplay:10.37,2013-07-27 07:23:00,
2013-07-27 09:28:00,79.3,67.4,29.89,East,94,4.0,4.0,67,0.00,SCT,,0.00,425.0,WeatherDisplay:10.37,2013-07-27 07:28:00,
2013-07-27 09:33:00,79.5,67.1,29.89,East,88,4.0,4.0,66,0.00,SCT,,0.00,512.0,WeatherDisplay:10.37,2013-07-27 07:33:00,
2013-07-27 09:38:00,80.0,67.2,29.89,East,84,2.3,2.3,65,0.00,FEW,,0.00,540.0,WeatherDisplay:10.37,2013-07-27 07:38:00,
2013-07-27 09:43:00,80.6,67.7,29.89,East,84,2.0,2.0,65,0.00,SCT,,0.00,545.0,WeatherDisplay:10.37,2013-07-27 07:43:00,
2013-07-27 09:48:00,81.0,67.7,29.89,East,84,4.6,4.6,64,0.00,SCT,,0.00,547.0,WeatherDisplay:10.37,2013-07-27 07:48:00,
2013-07-27 09:53:00,81.5,67.7,29.89,East,84,3.5,3.5,63,0.00,FEW,,0.00,568.0,WeatherDisplay:10.37,2013-07-27 07:53:00,
2013-07-27 09:58:00,82.3,68.9,29.89,East,85,3.5,3.5,64,0.00,SCT,,0.00,571.0,WeatherDisplay:10.37,2013-07-27 07:58:00,
2013-07-27 10:03:00,81.9,68.1,29.89,NE,40,5.0,5.0,63,0.00,SCT,,0.00,585.0,WeatherDisplay:10.37,2013-07-27 08:03:00,
2013-07-27 10:08:00,82.5,68.2,29.89,NE,49,4.6,4.6,62,0.00,SCT,,0.00,596.0,WeatherDisplay:10.37,2013-07-27 08:08:00,
2013-07-27 10:13:00,82.0,68.6,29.89,NE,46,5.0,5.0,64,0.00,SCT,,0.00,608.0,WeatherDisplay:10.37,2013-07-27 08:13:00,
2013-07-27 10:18:00,82.4,69.0,29.88,ENE,65,4.0,4.0,64,0.00,SCT,,0.00,612.0,WeatherDisplay:10.37,2013-07-27 08:18:00,
2013-07-27 10:23:00,83.1,70.1,29.88,NE,55,3.5,3.5,65,0.00,SCT,,0.00,624.0,WeatherDisplay:10.37,2013-07-27 08:23:00,
2013-07-27 10:28:00,83.2,69.8,29.88,ENE,65,4.6,4.6,64,0.00,FEW,,0.00,638.0,WeatherDisplay:10.37,2013-07-27 08:28:00,
2013-07-27 10:33:00,83.1,68.3,29.88,NE,51,5.8,5.8,61,0.00,FEW,,0.00,649.0,WeatherDisplay:10.37,2013-07-27 08:33:00,
2013-07-27 10:38:00,83.5,69.1,29.88,NE,56,7.0,7.0,62,0.00,FEW,,0.00,656.0,WeatherDisplay:10.37,2013-07-27 08:38:00,
2013-07-27 10:43:00,83.8,69.9,29.88,NE,49,3.5,3.5,63,0.00,SCT,,0.00,656.0,WeatherDisplay:10.37,2013-07-27 08:43:00,
2013-07-27 10:48:00,84.2,68.8,29.88,ENE,61,3.5,3.5,60,0.00,SCT,,0.00,670.0,WeatherDisplay:10.37,2013-07-27 08:48:00,
2013-07-27 10:53:00,84.7,69.3,29.88,ENE,78,6.9,6.9,60,0.00,FEW,,0.00,675.0,WeatherDisplay:10.37,2013-07-27 08:53:00,
2013-07-27 10:58:00,85.3,69.8,29.88,ENE,60,3.5,3.5,60,0.00,SCT,,0.00,682.0,WeatherDisplay:10.37,2013-07-27 08:58:00,
2013-07-27 11:03:00,86.2,70.2,29.88,East,94,5.0,5.0,59,0.00,FEW,,0.00,694.0,WeatherDisplay:10.37,2013-07-27 09:03:00,
2013-07-27 11:08:00,86.2,68.7,29.87,ENE,65,3.5,3.5,56,0.00,SCT,,0.00,696.0,WeatherDisplay:10.37,2013-07-27 09:08:00,
2013-07-27 11:13:00,86.2,67.6,29.87,NE,51,5.8,5.8,54,0.00,FEW,,0.00,710.0,WeatherDisplay:10.37,2013-07-27 09:13:00,
2013-07-27 11:18:00,87.1,69.0,29.87,ESE,110,5.8,5.8,55,0.00,FEW,,0.00,717.0,WeatherDisplay:10.37,2013-07-27 09:18:00,
2013-07-27 11:23:00,87.4,69.8,29.87,ENE,61,3.5,3.5,56,0.00,SCT,,0.00,721.0,WeatherDisplay:10.37,2013-07-27 09:23:00,
2013-07-27 11:28:00,87.7,69.5,29.87,ENE,57,7.0,7.0,55,0.00,FEW,,0.00,728.0,WeatherDisplay:10.37,2013-07-27 09:28:00,
2013-07-27 11:33:00,87.8,69.1,29.86,ENE,69,3.5,3.5,54,0.00,FEW,,0.00,733.0,WeatherDisplay:10.37,2013-07-27 09:33:00,
2013-07-27 11:38:00,89.1,69.2,29.87,ESE,123,7.0,7.0,52,0.00,FEW,,0.00,742.0,WeatherDisplay:10.37,2013-07-27 09:38:00,
2013-07-27 11:43:00,88.5,68.6,29.86,ESE,119,2.3,2.3,52,0.00,FEW,,0.00,752.0,WeatherDisplay:10.37,2013-07-27 09:43:00,
2013-07-27 11:48:00,89.1,69.7,29.86,ESE,115,5.0,5.0,53,0.00,SCT,,0.00,740.0,WeatherDisplay:10.37,2013-07-27 09:48:00,
2013-07-27 11:53:00,89.1,68.0,29.86,East,101,5.8,5.8,50,0.00,SCT,,0.00,738.0,WeatherDisplay:10.37,2013-07-27 09:53:00,
2013-07-27 11:58:00,89.0,68.5,29.86,ENE,63,6.0,6.0,51,0.00,SCT,,0.00,751.0,WeatherDisplay:10.37,2013-07-27 09:58:00,
2013-07-27 12:03:00,89.7,66.8,29.86,SE,124,4.6,4.6,47,0.00,SCT,,0.00,763.0,WeatherDisplay:10.37,2013-07-27 10:03:00,
2013-07-27 12:08:00,91.0,66.1,29.86,SE,130,2.3,2.3,44,0.00,SCT,,0.00,751.0,WeatherDisplay:10.37,2013-07-27 10:08:00,
2013-07-27 12:13:00,90.9,66.0,29.85,ESE,108,5.0,5.0,44,0.00,FEW,,0.00,770.0,WeatherDisplay:10.37,2013-07-27 10:13:00,
2013-07-27 12:18:00,91.6,65.9,29.85,SSW,205,9.2,9.2,43,0.00,SCT,,0.00,763.0,WeatherDisplay:10.37,2013-07-27 10:18:00,
2013-07-27 12:23:00,92.1,67.1,29.85,SW,233,4.0,4.0,44,0.00,SCT,,0.00,775.0,WeatherDisplay:10.37,2013-07-27 10:23:00,
2013-07-27 12:28:00,92.9,64.3,29.85,SSE,150,5.8,5.8,39,0.00,SCT,,0.00,780.0,WeatherDisplay:10.37,2013-07-27 10:28:00,
2013-07-27 12:33:00,92.6,63.3,29.85,SSE,164,8.1,8.1,38,0.00,FEW,,0.00,782.0,WeatherDisplay:10.37,2013-07-27 10:33:00,
2013-07-27 12:38:00,92.0,63.5,29.85,SSE,161,1.2,1.2,39,0.00,SCT,,0.00,780.0,WeatherDisplay:10.37,2013-07-27 10:38:00,
2013-07-27 12:43:00,91.8,64.0,29.84,SSE,161,2.3,2.3,40,0.00,SCT,,0.00,779.0,WeatherDisplay:10.37,2013-07-27 10:43:00,
2013-07-27 12:48:00,92.6,66.2,29.85,SE,146,4.0,4.0,42,0.00,SCT,,0.00,786.0,WeatherDisplay:10.37,2013-07-27 10:48:00,
2013-07-27 12:53:00,93.6,63.4,29.84,West,261,4.6,4.6,37,0.00,SCT,,0.00,789.0,WeatherDisplay:10.37,2013-07-27 10:53:00,
2013-07-27 12:58:00,93.8,64.3,29.84,West,261,3.5,3.5,38,0.00,SCT,,0.00,789.0,WeatherDisplay:10.37,2013-07-27 10:58:00,
2013-07-27 13:03:00,94.4,61.7,29.84,SSW,198,5.8,5.8,34,0.00,SCT,,0.00,789.0,WeatherDisplay:10.37,2013-07-27 11:03:00,
2013-07-27 13:08:00,94.6,61.9,29.84,SW,217,8.1,8.1,34,0.00,SCT,,0.00,782.0,WeatherDisplay:10.37,2013-07-27 11:08:00,
2013-07-27 13:13:00,94.4,62.5,29.84,SW,225,4.0,4.0,35,0.00,SCT,,0.00,780.0,WeatherDisplay:10.37,2013-07-27 11:13:00,
2013-07-27 13:18:00,94.0,59.7,29.84,SSW,198,2.0,2.0,32,0.00,SCT,,0.00,770.0,WeatherDisplay:10.37,2013-07-27 11:18:00,
2013-07-27 13:23:00,94.3,60.8,29.84,WNW,286,3.5,3.5,33,0.00,SCT,,0.00,780.0,WeatherDisplay:10.37,2013-07-27 11:23:00,
2013-07-27 13:28:00,93.5,60.9,29.84,WNW,286,3.5,3.5,34,0.00,SCT,,0.00,784.0,WeatherDisplay:10.37,2013-07-27 11:28:00,
2013-07-27 13:33:00,93.7,62.7,29.84,SSW,210,4.0,4.0,36,0.00,SCT,,0.00,782.0,WeatherDisplay:10.37,2013-07-27 11:33:00,
2013-07-27 13:38:00,94.2,63.2,29.84,WSW,243,8.0,8.0,36,0.00,SCT,,0.00,759.0,WeatherDisplay:10.37,2013-07-27 11:38:00,
2013-07-27 13:43:00,94.9,62.1,29.84,West,274,5.0,5.0,34,0.00,SCT,,0.00,777.0,WeatherDisplay:10.37,2013-07-27 11:43:00,
2013-07-27 13:48:00,94.9,62.1,29.84,South,180,3.5,3.5,34,0.00,SCT,,0.00,766.0,WeatherDisplay:10.37,2013-07-27 11:48:00,
2013-07-27 13:53:00,95.2,62.4,29.83,SW,234,8.1,8.1,34,0.00,SCT,,0.00,768.0,WeatherDisplay:10.37,2013-07-27 11:53:00,
2013-07-27 13:58:00,95.5,63.5,29.83,SSW,209,7.0,7.0,35,0.00,SCT,,0.00,773.0,WeatherDisplay:10.37,2013-07-27 11:58:00,
2013-07-27 14:03:00,95.1,62.3,29.83,SE,140,5.0,5.0,34,0.00,SCT,,0.00,759.0,WeatherDisplay:10.37,2013-07-27 12:03:00,
2013-07-27 14:08:00,94.9,62.1,29.83,SW,215,7.0,7.0,34,0.00,SCT,,0.00,752.0,WeatherDisplay:10.37,2013-07-27 12:08:00,
2013-07-27 14:13:00,95.4,65.0,29.83,SW,217,3.5,3.5,37,0.00,SCT,,0.00,758.0,WeatherDisplay:10.37,2013-07-27 12:13:00,
2013-07-27 14:18:00,95.3,62.5,29.83,South,177,6.0,6.0,34,0.00,SCT,,0.00,751.0,WeatherDisplay:10.37,2013-07-27 12:18:00,
2013-07-27 14:23:00,95.2,61.6,29.83,SE,127,5.8,5.8,33,0.00,SCT,,0.00,715.0,WeatherDisplay:10.37,2013-07-27 12:23:00,
2013-07-27 14:28:00,94.8,65.2,29.82,WNW,298,3.5,3.5,38,0.00,SCT,,0.00,749.0,WeatherDisplay:10.37,2013-07-27 12:28:00,
2013-07-27 14:33:00,95.7,62.8,29.82,South,171,5.8,5.8,34,0.00,SCT,,0.00,724.0,WeatherDisplay:10.37,2013-07-27 12:33:00,
2013-07-27 14:38:00,95.9,62.2,29.82,South,178,9.2,9.2,33,0.00,SCT,,0.00,714.0,WeatherDisplay:10.37,2013-07-27 12:38:00,
2013-07-27 14:43:00,95.1,61.5,29.82,South,186,6.9,6.9,33,0.00,SCT,,0.00,691.0,WeatherDisplay:10.37,2013-07-27 12:43:00,
2013-07-27 14:48:00,95.5,61.8,29.82,SSW,207,13.8,13.8,33,0.00,SCT,,0.00,705.0,WeatherDisplay:10.37,2013-07-27 12:48:00,
2013-07-27 14:53:00,95.3,64.1,29.82,SW,228,9.2,9.2,36,0.00,SCT,,0.00,705.0,WeatherDisplay:10.37,2013-07-27 12:53:00,
2013-07-27 14:58:00,96.0,62.3,29.82,South,184,10.4,10.4,33,0.00,SCT,,0.00,686.0,WeatherDisplay:10.37,2013-07-27 12:58:00,
2013-07-27 15:03:00,95.8,62.9,29.82,SW,236,4.6,4.6,34,0.00,SCT,,0.00,673.0,WeatherDisplay:10.37,2013-07-27 13:03:00,
2013-07-27 15:08:00,95.4,62.6,29.82,SE,144,2.3,2.3,34,0.00,SCT,,0.00,671.0,WeatherDisplay:10.37,2013-07-27 13:08:00,
2013-07-27 15:13:00,95.5,61.8,29.82,NNW,335,5.8,5.8,33,0.00,SCT,,0.00,666.0,WeatherDisplay:10.37,2013-07-27 13:13:00,
2013-07-27 15:18:00,95.0,61.4,29.82,East,94,4.6,4.6,33,0.00,SCT,,0.00,664.0,WeatherDisplay:10.37,2013-07-27 13:18:00,
2013-07-27 15:23:00,95.7,62.8,29.81,WSW,250,5.0,5.0,34,0.00,SCT,,0.00,663.0,WeatherDisplay:10.37,2013-07-27 13:23:00,
2013-07-27 15:28:00,96.7,62.9,29.81,SW,225,3.5,3.5,33,0.00,SCT,,0.00,657.0,WeatherDisplay:10.37,2013-07-27 13:28:00,
2013-07-27 15:34:00,96.1,62.3,29.81,ESE,109,6.9,6.9,33,0.00,SCT,,0.00,647.0,WeatherDisplay:10.37,2013-07-27 13:34:00,
2013-07-27 15:39:00,96.1,63.2,29.81,SE,128,5.8,5.8,34,0.00,SCT,,0.00,635.0,WeatherDisplay:10.37,2013-07-27 13:39:00,
2013-07-27 15:44:00,95.6,61.9,29.81,East,101,8.1,8.1,33,0.00,SCT,,0.00,624.0,WeatherDisplay:10.37,2013-07-27 13:44:00,
2013-07-27 15:49:00,96.0,63.1,29.80,South,180,4.6,4.6,34,0.00,SCT,,0.00,615.0,WeatherDisplay:10.37,2013-07-27 13:49:00,
2013-07-27 15:54:00,96.6,62.8,29.80,South,180,2.0,2.0,33,0.00,SCT,,0.00,605.0,WeatherDisplay:10.37,2013-07-27 13:54:00,
2013-07-27 15:59:00,97.1,63.2,29.80,WSW,252,5.0,5.0,33,0.00,SCT,,0.00,592.0,WeatherDisplay:10.37,2013-07-27 13:59:00,
2013-07-27 16:04:00,96.5,62.7,29.80,SW,223,4.0,4.0,33,0.00,SCT,,0.00,582.0,WeatherDisplay:10.37,2013-07-27 14:04:00,
2013-07-27 16:09:00,96.1,63.2,29.80,SSW,208,4.0,4.0,34,0.00,SCT,,0.00,575.0,WeatherDisplay:10.37,2013-07-27 14:09:00,
2013-07-27 16:14:00,97.0,64.0,29.80,SW,218,3.0,3.0,34,0.00,SCT,,0.00,568.0,WeatherDisplay:10.37,2013-07-27 14:14:00,
2013-07-27 16:19:00,97.5,63.6,29.79,SW,219,4.6,4.6,33,0.00,SCT,,0.00,548.0,WeatherDisplay:10.37,2013-07-27 14:19:00,
2013-07-27 16:24:00,96.9,63.9,29.79,South,188,6.9,6.9,34,0.00,SCT,,0.00,538.0,WeatherDisplay:10.37,2013-07-27 14:24:00,
2013-07-27 16:29:00,96.4,63.5,29.79,SSE,153,6.9,6.9,34,0.00,SCT,,0.00,522.0,WeatherDisplay:10.37,2013-07-27 14:29:00,
2013-07-27 16:34:00,96.3,62.5,29.79,SSE,155,4.6,4.6,33,0.00,SCT,,0.00,508.0,WeatherDisplay:10.37,2013-07-27 14:34:00,
2013-07-27 16:39:00,95.9,63.0,29.79,SSE,168,3.5,3.5,34,0.00,SCT,,0.00,503.0,WeatherDisplay:10.37,2013-07-27 14:39:00,
2013-07-27 16:44:00,96.0,64.7,29.79,SSE,168,4.0,4.0,36,0.00,SCT,,0.00,501.0,WeatherDisplay:10.37,2013-07-27 14:44:00,
2013-07-27 16:49:00,96.6,65.3,29.79,SSW,209,5.8,5.8,36,0.00,SCT,,0.00,503.0,WeatherDisplay:10.37,2013-07-27 14:49:00,
2013-07-27 16:54:00,97.2,62.4,29.79,South,187,6.9,6.9,32,0.00,SCT,,0.00,483.0,WeatherDisplay:10.37,2013-07-27 14:54:00,
2013-07-27 17:00:00,96.6,63.6,29.78,SE,131,6.0,6.0,34,0.00,SCT,,0.00,461.0,WeatherDisplay:10.37,2013-07-27 15:00:00,
2013-07-27 17:05:00,96.2,61.6,29.79,SSE,154,8.1,8.1,32,0.00,SCT,,0.00,457.0,WeatherDisplay:10.37,2013-07-27 15:05:00,
2013-07-27 17:10:00,96.3,62.5,29.78,SE,125,9.2,9.2,33,0.00,SCT,,0.00,443.0,WeatherDisplay:10.37,2013-07-27 15:10:00,
2013-07-27 17:15:00,96.6,63.6,29.78,SW,227,3.5,3.5,34,0.00,SCT,,0.00,446.0,WeatherDisplay:10.37,2013-07-27 15:15:00,
2013-07-27 17:20:00,96.9,63.0,29.78,SE,136,7.0,7.0,33,0.00,SCT,,0.00,424.0,WeatherDisplay:10.37,2013-07-27 15:20:00,
2013-07-27 17:25:00,96.4,60.8,29.78,South,172,5.8,5.8,31,0.00,SCT,,0.00,410.0,WeatherDisplay:10.37,2013-07-27 15:25:00,
2013-07-27 17:30:00,96.5,60.9,29.78,South,176,3.5,3.5,31,0.00,SCT,,0.00,385.0,WeatherDisplay:10.37,2013-07-27 15:30:00,
2013-07-27 17:35:00,96.1,63.2,29.78,SSE,163,6.0,6.0,34,0.00,SCT,,0.00,367.0,WeatherDisplay:10.37,2013-07-27 15:35:00,
2013-07-27 17:40:00,96.4,62.6,29.78,ESE,118,6.9,6.9,33,0.00,SCT,,0.00,348.0,WeatherDisplay:10.37,2013-07-27 15:40:00,
2013-07-27 17:45:00,95.5,61.8,29.77,ENE,69,5.8,5.8,33,0.00,SCT,,0.00,339.0,WeatherDisplay:10.37,2013-07-27 15:45:00,
2013-07-27 17:50:00,94.8,62.1,29.77,ENE,60,3.5,3.5,34,0.00,SCT,,0.00,329.0,WeatherDisplay:10.37,2013-07-27 15:50:00,
2013-07-27 17:55:00,95.0,63.9,29.77,East,92,6.0,6.0,36,0.00,SCT,,0.00,315.0,WeatherDisplay:10.37,2013-07-27 15:55:00,
2013-07-27 18:01:00,95.0,62.2,29.77,ESE,122,9.2,9.2,34,0.00,SCT,,0.00,292.0,WeatherDisplay:10.37,2013-07-27 16:01:00,
2013-07-27 18:06:00,95.0,61.4,29.77,ENE,74,4.6,4.6,33,0.00,SCT,,0.00,290.0,WeatherDisplay:10.37,2013-07-27 16:06:00,
2013-07-27 18:11:00,94.8,62.9,29.77,ESE,122,8.0,8.0,35,0.00,SCT,,0.00,281.0,WeatherDisplay:10.37,2013-07-27 16:11:00,
2013-07-27 18:16:00,94.8,62.9,29.77,SE,139,6.9,6.9,35,0.00,SCT,,0.00,269.0,WeatherDisplay:10.37,2013-07-27 16:16:00,
2013-07-27 18:21:00,94.6,62.7,29.77,SE,128,4.6,4.6,35,0.00,SCT,,0.00,253.0,WeatherDisplay:10.37,2013-07-27 16:21:00,
2013-07-27 18:26:00,94.3,63.2,29.77,SE,126,5.0,5.0,36,0.00,SCT,,0.00,241.0,WeatherDisplay:10.37,2013-07-27 16:26:00,
2013-07-27 18:31:00,94.5,62.6,29.77,East,90,7.0,7.0,35,0.00,SCT,,0.00,230.0,WeatherDisplay:10.37,2013-07-27 16:31:00,
2013-07-27 18:36:00,94.3,62.4,29.77,ENE,78,6.0,6.0,35,0.00,SCT,,0.00,218.0,WeatherDisplay:10.37,2013-07-27 16:36:00,
2013-07-27 18:41:00,94.1,62.3,29.76,ESE,108,8.1,8.1,35,0.00,SCT,,0.00,206.0,WeatherDisplay:10.37,2013-07-27 16:41:00,
2013-07-27 18:46:00,94.0,63.0,29.76,East,90,8.1,8.1,36,0.00,SCT,,0.00,197.0,WeatherDisplay:10.37,2013-07-27 16:46:00,
2013-07-27 18:52:00,93.9,62.9,29.76,SE,128,6.9,6.9,36,0.00,SCT,,0.00,181.0,WeatherDisplay:10.37,2013-07-27 16:52:00,
2013-07-27 18:57:00,93.8,62.8,29.76,ENE,78,6.9,6.9,36,0.00,SCT,,0.00,171.0,WeatherDisplay:10.37,2013-07-27 16:57:00,
2013-07-27 19:02:00,93.3,63.1,29.77,ENE,61,6.0,6.0,37,0.00,BKN,,0.00,107.0,WeatherDisplay:10.37,2013-07-27 17:02:00,
2013-07-27 19:07:00,92.8,62.7,29.76,East,96,5.8,5.8,37,0.00,OVC,,0.00,79.0,WeatherDisplay:10.37,2013-07-27 17:07:00,
2013-07-27 19:12:00,92.5,63.9,29.76,East,98,2.3,2.3,39,0.00,BKN,,0.00,111.0,WeatherDisplay:10.37,2013-07-27 17:12:00,
2013-07-27 19:18:00,92.2,62.9,29.76,ESE,113,5.0,5.0,38,0.00,OVC,,0.00,53.0,WeatherDisplay:10.37,2013-07-27 17:18:00,
2013-07-27 19:23:00,91.9,63.4,29.76,ESE,116,5.0,5.0,39,0.00,OVC,,0.00,49.0,WeatherDisplay:10.37,2013-07-27 17:23:00,
2013-07-27 19:28:00,91.8,63.3,29.76,ESE,123,5.8,5.8,39,0.00,OVC,,0.00,46.0,WeatherDisplay:10.37,2013-07-27 17:28:00,
2013-07-27 19:33:00,91.5,63.8,29.76,ESE,123,4.6,4.6,40,0.00,OVC,,0.00,44.0,WeatherDisplay:10.37,2013-07-27 17:33:00,
2013-07-27 19:38:00,91.3,63.6,29.76,ESE,121,5.0,5.0,40,0.00,OVC,,0.00,42.0,WeatherDisplay:10.37,2013-07-27 17:38:00,
2013-07-27 19:43:00,91.0,63.3,29.76,ESE,119,4.6,4.6,40,0.00,OVC,,0.00,39.0,WeatherDisplay:10.37,2013-07-27 17:43:00,
2013-07-27 19:48:00,90.8,63.9,29.76,SE,125,4.0,4.0,41,0.00,OVC,,0.00,37.0,WeatherDisplay:10.37,2013-07-27 17:48:00,
2013-07-27 19:53:00,90.3,63.4,29.76,ESE,104,5.0,5.0,41,0.00,OVC,,0.00,33.0,WeatherDisplay:10.37,2013-07-27 17:53:00,
2013-07-27 19:58:00,89.9,63.0,29.76,ESE,106,3.5,3.5,41,0.00,OVC,,0.00,30.0,WeatherDisplay:10.37,2013-07-27 17:58:00,
2013-07-27 20:03:00,89.8,63.0,29.76,ESE,103,4.0,4.0,41,0.00,OVC,,0.00,28.0,WeatherDisplay:10.37,2013-07-27 18:03:00,
2013-07-27 20:08:00,89.2,63.1,29.76,ESE,103,2.3,2.3,42,0.00,OVC,,0.00,25.0,WeatherDisplay:10.37,2013-07-27 18:08:00,
2013-07-27 20:13:00,88.8,64.1,29.76,ESE,107,3.5,3.5,44,0.00,OVC,,0.00,21.0,WeatherDisplay:10.37,2013-07-27 18:13:00,
2013-07-27 20:18:00,88.1,63.4,29.76,ESE,108,3.5,3.5,44,0.00,OVC,,0.00,19.0,WeatherDisplay:10.37,2013-07-27 18:18:00,
2013-07-27 20:23:00,87.4,64.1,29.76,ESE,108,2.0,2.0,46,0.00,OVC,,0.00,16.0,WeatherDisplay:10.37,2013-07-27 18:23:00,
2013-07-27 20:28:00,86.7,63.4,29.76,ESE,108,3.5,3.5,46,0.00,OVC,,0.00,12.0,WeatherDisplay:10.37,2013-07-27 18:28:00,
2013-07-27 20:33:00,86.5,63.3,29.76,ESE,108,2.3,2.3,46,0.00,OVC,,0.00,11.0,WeatherDisplay:10.37,2013-07-27 18:33:00,
2013-07-27 20:39:00,86.2,63.6,29.76,ESE,108,2.3,2.3,47,0.00,OVC,,0.00,5.0,WeatherDisplay:10.37,2013-07-27 18:39:00,
2013-07-27 20:44:00,85.3,64.0,29.76,ESE,108,4.0,4.0,49,0.00,OVC,,0.00,0.0,WeatherDisplay:10.37,2013-07-27 18:44:00,
2013-07-27 20:49:00,84.9,63.6,29.76,ESE,108,2.3,2.3,49,0.00,OVC,,0.00,0.0,WeatherDisplay:10.37,2013-07-27 18:49:00,
2013-07-27 20:54:00,84.3,64.2,29.76,ESE,108,2.0,2.0,51,0.00,OVC,,0.00,0.0,WeatherDisplay:10.37,2013-07-27 18:54:00,
2013-07-27 20:59:00,83.3,65.4,29.76,ESE,107,1.2,1.2,55,0.00,OVC,,0.00,0.0,WeatherDisplay:10.37,2013-07-27 18:59:00,
2013-07-27 21:04:00,82.4,65.1,29.76,ESE,108,1.2,0.0,56,0.00,CLR,,0.00,0.0,WeatherDisplay:10.37,2013-07-27 19:04:00,
2013-07-27 21:09:00,82.2,64.4,29.76,ESE,108,2.3,2.3,55,0.00,CLR,,0.00,0.0,WeatherDisplay:10.37,2013-07-27 19:09:00,
2013-07-27 21:14:00,82.1,64.3,29.76,ESE,108,3.5,3.5,55,0.00,CLR,,0.00,0.0,WeatherDisplay:10.37,2013-07-27 19:14:00,
2013-07-27 21:19:00,81.6,64.9,29.76,ESE,108,3.5,3.5,57,0.00,CLR,,0.00,0.0,WeatherDisplay:10.37,2013-07-27 19:19:00,
2013-07-27 21:24:00,81.3,64.1,29.76,ESE,108,2.3,2.3,56,0.00,CLR,,0.00,0.0,WeatherDisplay:10.37,2013-07-27 19:24:00,
2013-07-27 21:29:00,81.4,64.2,29.76,ESE,108,1.2,1.2,56,0.00,CLR,,0.00,0.0,WeatherDisplay:10.37,2013-07-27 19:29:00,
2013-07-27 21:34:00,81.0,64.3,29.77,ESE,107,2.3,2.3,57,0.00,CLR,,0.00,0.0,WeatherDisplay:10.37,2013-07-27 19:34:00,
2013-07-27 21:39:00,81.1,63.9,29.77,ESE,108,2.3,2.3,56,0.00,CLR,,0.00,0.0,WeatherDisplay:10.37,2013-07-27 19:39:00,
2013-07-27 21:44:00,80.6,64.0,29.77,ESE,108,2.0,2.0,57,0.00,CLR,,0.00,0.0,WeatherDisplay:10.37,2013-07-27 19:44:00,
2013-07-27 21:49:00,79.7,64.1,29.77,ESE,107,3.5,3.5,59,0.00,CLR,,0.00,0.0,WeatherDisplay:10.37,2013-07-27 19:49:00,
2013-07-27 21:54:00,79.3,64.2,29.77,ESE,108,1.2,1.2,60,0.00,CLR,,0.00,0.0,WeatherDisplay:10.37,2013-07-27 19:54:00,
2013-07-27 21:59:00,79.1,64.5,29.77,ESE,108,1.2,0.0,61,0.00,CLR,,0.00,0.0,WeatherDisplay:10.37,2013-07-27 19:59:00,
2013-07-27 22:04:00,78.6,64.0,29.77,ESE,107,3.5,3.5,61,0.00,CLR,,0.00,0.0,WeatherDisplay:10.37,2013-07-27 20:04:00,
2013-07-27 22:09:00,78.3,64.2,29.77,ESE,108,2.3,2.3,62,0.00,CLR,,0.00,0.0,WeatherDisplay:10.37,2013-07-27 20:09:00,
2013-07-27 22:15:00,78.2,64.1,29.77,ESE,108,1.2,1.2,62,0.00,CLR,,0.00,0.0,WeatherDisplay:10.37,2013-07-27 20:15:00,
2013-07-27 22:20:00,78.1,63.6,29.77,ESE,108,2.3,2.3,61,0.00,CLR,,0.00,0.0,WeatherDisplay:10.37,2013-07-27 20:20:00,
2013-07-27 22:26:00,78.4,63.4,29.77,ESE,108,2.3,2.3,60,0.00,CLR,,0.00,0.0,WeatherDisplay:10.37,2013-07-27 20:26:00,
2013-07-27 22:32:00,78.8,63.3,29.78,ESE,106,4.0,4.0,59,0.00,CLR,,0.00,0.0,WeatherDisplay:10.37,2013-07-27 20:32:00,
2013-07-27 22:37:00,79.0,63.4,29.77,ESE,107,4.0,4.0,59,0.00,CLR,,0.00,0.0,WeatherDisplay:10.37,2013-07-27 20:37:00,
2013-07-27 22:42:00,78.8,63.7,29.77,ESE,107,4.6,4.6,60,0.00,CLR,,0.00,0.0,WeatherDisplay:10.37,2013-07-27 20:42:00,
2013-07-27 22:48:00,78.3,63.7,29.78,ESE,108,2.3,2.3,61,0.00,CLR,,0.00,0.0,WeatherDisplay:10.37,2013-07-27 20:48:00,
2013-07-27 22:53:00,78.3,63.7,29.77,ESE,108,3.5,3.5,61,0.00,CLR,,0.00,0.0,WeatherDisplay:10.37,2013-07-27 20:53:00,
2013-07-27 22:58:00,78.3,64.2,29.77,ESE,111,4.6,4.6,62,0.00,CLR,,0.00,0.0,WeatherDisplay:10.37,2013-07-27 20:58:00,
2013-07-27 23:03:00,78.3,64.2,29.77,East,101,4.6,4.6,62,0.00,CLR,,0.00,0.0,WeatherDisplay:10.37,2013-07-27 21:03:00,
2013-07-27 23:08:00,78.3,64.7,29.77,ESE,103,4.0,4.0,63,0.00,CLR,,0.00,0.0,WeatherDisplay:10.37,2013-07-27 21:08:00,
2013-07-27 23:13:00,78.0,64.4,29.77,ESE,103,4.6,4.6,63,0.00,CLR,,0.00,0.0,WeatherDisplay:10.37,2013-07-27 21:13:00,
2013-07-27 23:18:00,77.7,64.5,29.77,ESE,105,4.0,4.0,64,0.00,CLR,,0.00,0.0,WeatherDisplay:10.37,2013-07-27 21:18:00,
2013-07-27 23:23:00,77.5,64.4,29.77,East,101,4.0,4.0,64,0.00,CLR,,0.00,0.0,WeatherDisplay:10.37,2013-07-27 21:23:00,
2013-07-27 23:28:00,77.4,64.7,29.77,East,92,5.0,5.0,65,0.00,CLR,,0.00,0.0,WeatherDisplay:10.37,2013-07-27 21:28:00,
2013-07-27 23:33:00,77.3,64.6,29.78,ESE,107,4.6,4.6,65,0.00,CLR,,0.00,0.0,WeatherDisplay:10.37,2013-07-27 21:33:00,
2013-07-27 23:38:00,77.2,64.5,29.77,East,101,4.6,4.6,65,0.00,CLR,,0.00,0.0,WeatherDisplay:10.37,2013-07-27 21:38:00,
2013-07-27 23:44:00,77.0,64.3,29.77,East,101,4.0,4.0,65,0.00,CLR,,0.00,0.0,WeatherDisplay:10.37,2013-07-27 21:44:00,
2013-07-27 23:49:00,76.9,64.7,29.78,ESE,115,5.8,5.8,66,0.00,CLR,,0.00,0.0,WeatherDisplay:10.37,2013-07-27 21:49:00,
2013-07-27 23:54:00,76.7,64.5,29.78,ESE,113,5.0,5.0,66,0.00,CLR,,0.00,0.0,WeatherDisplay:10.37,2013-07-27 21:54:00,
2013-07-27 23:59:00,76.4,64.2,29.78,ESE,113,2.3,2.3,66,0.00,CLR,,0.00,0.0,WeatherDisplay:10.37,2013-07-27 21:59:00,